Terminal Aerodrome Forecast
Issued by NWS

Home | Current Version | Previous Version | Text Only | Print | Product List | Glossary On
Versions: 1 2 3 4 5 6 7 8 9 10 11 12 13 14 15 16 17 18 19 20 21 22 23 24 25 26
000
FTUS43 KDLH 220800 AAC
TAFHIB
TAF AMD
KHIB 220807Z 2208/2306 VRB01KT 2SM BR SCT002
      TEMPO 2208/2211 1/4SM FG OVC002
     FM221300 27005KT P6SM FEW030
     FM230000 VRB03KT P6SM SKC=

USA.gov is the U.S. government's official web portal to all federal, state and local government web resources and services.